Regional Weather Roundup
Issued by NWS Albany, NY

Home | Current Version | Previous Version | Text Only | Print | Product List | Glossary On
Versions: 1 2 3 4 5 6 7 8 9 10 11 12 13 14 15 16 17 18 19 20 21 22 23 24 25 26 27 28 29 30 31 32 33 34 35 36 37 38 39 40 41 42 43 44 45 46 47 48 49 50
000
ASUS41 KALY 261910
RWRALY

NEW YORK STATE HOURLY WEATHER ROUNDUP
NATIONAL WEATHER SERVICE ALBANY NY
300 PM EDT THU MAR 26 2015

NOTE: "FAIR" INDICATES FEW OR NO CLOUDS BELOW 12,000 FEET WITH NO
SIGNIFICANT WEATHER AND/OR NO OBSTRUCTIONS TO VISIBILITY.

NYZ032-033-038>043-046>054-057>066-NYZ062>081-262000-
EAST


CITY           SKY/WX    TMP DP  RH WIND       PRES   REMARKS
ALBANY         LGT RAIN  42  39  89 NE6       29.74F VSB 3/4
GLENS FALLS    LGT RAIN  39  37  92 CALM      29.74  FOG
POUGHKEEPSIE   LGT RAIN  49  44  83 CALM      29.69F
NEWBURGH       CLOUDY    50  46  87 CALM      29.70F FOG
MONTGOMERY     LGT RAIN  48  45  89 S3        29.69F FOG
WHITE PLAINS   LGT RAIN  46  45  93 E7        29.69F VSB 1/4
ISLIP          TSTM      53  50  89 SW23G30   29.74F VSB 3/4
NEW YORK CITY  CLOUDY    51  48  89 SE9       29.71F FOG
CENTRAL PARK   CLOUDY    51  48  89 VRB5      29.74F FOG
$$

NYZ005>009-017-018-044>046-055-056-262000-
CENTRAL


CITY           SKY/WX    TMP DP  RH WIND       PRES   REMARKS
FULTON         LGT SNOW  35  33  92 CALM      29.76F FOG
SYRACUSE       RAIN      37  33  85 CALM      29.76F FOG
ROME           LGT RAIN  37  37 100 NW5       29.77S VSB 3/4 WCI  33
ELMIRA         RAIN      39  39 100 CALM      29.71F FOG
BINGHAMTON     LGT RAIN  36  35  96 N8        29.67F VSB 1/4 WCI  30
MONTICELLO     CLOUDY    46  45  93 SE6       29.68F
$$

NYZ026>034-041>043-262000-
NORTH


CITY           SKY/WX    TMP DP  RH WIND       PRES   REMARKS
WATERTOWN      SNOW      35  32  88 CALM      29.76F VSB 1/4
FORT DRUM      NOT AVBL
MASSENA        LGT SNOW  35  35 100 SW7       29.77F FOG     WCI  29
SARANAC LAKE   LGT SNOW  33  32  96 CALM      29.68F VSB 3/4
PLATTSBURGH    LGT RAIN  40  38  93 CALM      29.75F FOG
$$

NYZ001>004-010>016-019>021-262000-
WEST


CITY           SKY/WX    TMP DP  RH WIND       PRES   REMARKS
NIAGARA FALLS  LGT SNOW  34  32  92 W6        29.78S FOG     WCI  29
BUFFALO        LGT SNOW  35  32  88 W5        29.78F FOG     WCI  31
DUNKIRK        LGT SNOW  33  32  96 W5        29.80S FOG     WCI  29
JAMESTOWN      CLOUDY    36  34  93 W6        29.74F WCI  31
WELLSVILLE     LGT SNOW  36  34  92 NW7       29.72R FOG     WCI  30
ROCHESTER      LGT SNOW  34  33  96 CALM      29.77F VSB 1
PENN YAN       LGT SNOW  35  33  92 VRB3      29.74F FOG
$$

             KEY
       WCI = WIND CHILL INDEX
       VSB = VISIBILITY
       HX  = HEAT INDEX
$$



USA.gov is the U.S. government's official web portal to all federal, state and local government web resources and services.